TimeAKDT,TemperatureF,Dew PointF,Humidity,Sea Level PressureIn,VisibilityMPH,Wind Direction,Wind SpeedMPH,Gust SpeedMPH,PrecipitationIn,Events,Conditions,WindDirDegrees,DateUTC
12:16 AM,42.8,35.6,76,29.66,9.0,SE,9.2,34.5,0.02,,Overcast,140,2013-04-09 08:16:00
12:36 AM,42.8,37.4,81,29.64,9.0,SE,10.4,19.6,0.03,,Overcast,140,2013-04-09 08:36:00
12:56 AM,42.8,35.6,76,29.62,7.0,East,13.8,23.0,0.04,,Overcast,100,2013-04-09 08:56:00
1:16 AM,42.8,35.6,76,29.60,8.0,East,11.5,19.6,0.03,,Overcast,100,2013-04-09 09:16:00
1:36 AM,42.8,35.6,76,29.57,8.0,East,9.2,24.2,0.07,,Overcast,100,2013-04-09 09:36:00
1:56 AM,42.8,35.6,76,29.53,9.0,East,10.4,19.6,0.14,,Overcast,100,2013-04-09 09:56:00
2:16 AM,42.8,35.6,76,29.49,8.0,East,9.2,16.1,0.07,,Overcast,80,2013-04-09 10:16:00
2:36 AM,42.8,35.6,76,29.48,8.0,ESE,16.1,24.2,0.10,,Overcast,110,2013-04-09 10:36:00
3:16 AM,42.8,35.6,76,29.46,5.0,ENE,15.0,34.5,N/A,,Unknown,70,2013-04-09 11:16:00
3:36 AM,42.8,35.6,76,29.45,5.0,ENE,9.2,19.6,N/A,,Mostly Cloudy,70,2013-04-09 11:36:00
3:56 AM,42.8,35.6,76,29.46,5.0,WNW,5.8,-,N/A,,Mostly Cloudy,300,2013-04-09 11:56:00
4:16 AM,42.8,35.6,76,29.46,7.0,NE,3.5,-,N/A,,Overcast,50,2013-04-09 12:16:00
4:36 AM,42.8,35.6,76,29.43,5.0,ESE,8.1,19.6,N/A,,Overcast,110,2013-04-09 12:36:00
4:56 AM,42.8,35.6,76,29.42,5.0,ESE,8.1,19.6,0.05,,Overcast,110,2013-04-09 12:56:00
5:16 AM,42.8,35.6,76,29.41,5.0,ESE,9.2,26.5,0.02,,Overcast,120,2013-04-09 13:16:00
5:36 AM,42.8,35.6,76,29.40,5.0,SE,12.7,24.2,0.02,,Overcast,130,2013-04-09 13:36:00
5:56 AM,42.8,35.6,76,29.38,5.0,East,13.8,21.9,0.03,,Overcast,100,2013-04-09 13:56:00
6:16 AM,42.8,35.6,76,29.37,5.0,East,16.1,27.6,0.02,,Overcast,100,2013-04-09 14:16:00
6:36 AM,42.8,37.4,81,29.35,5.0,ESE,12.7,42.6,0.03,,Overcast,110,2013-04-09 14:36:00
6:56 AM,42.8,37.4,81,29.35,10.0,East,12.7,29.9,0.03,,Overcast,100,2013-04-09 14:56:00
7:16 AM,42.8,37.4,81,29.34,10.0,ESE,15.0,31.1,N/A,,Overcast,110,2013-04-09 15:16:00
7:36 AM,42.8,37.4,81,29.33,10.0,ESE,18.4,33.4,0.02,,Overcast,120,2013-04-09 15:36:00
7:56 AM,42.8,37.4,81,29.31,7.0,ESE,18.4,27.6,0.04,,Overcast,110,2013-04-09 15:56:00
8:16 AM,42.8,37.4,81,29.31,7.0,East,21.9,29.9,0.01,,Overcast,100,2013-04-09 16:16:00
8:36 AM,42.8,37.4,81,29.32,7.0,ESE,19.6,34.5,0.02,,Overcast,120,2013-04-09 16:36:00
8:56 AM,42.8,37.4,81,29.33,5.0,ESE,8.1,23.0,0.04,,Overcast,120,2013-04-09 16:56:00
9:16 AM,42.8,37.4,81,29.33,5.0,ESE,6.9,-,0.01,,Overcast,110,2013-04-09 17:16:00
9:36 AM,42.8,37.4,81,29.34,5.0,ENE,3.5,-,0.06,,Overcast,60,2013-04-09 17:36:00
9:56 AM,42.8,37.4,81,29.34,4.0,East,4.6,-,0.09,,Overcast,80,2013-04-09 17:56:00
10:16 AM,42.8,37.4,81,29.35,4.0,East,8.1,-,0.04,,Overcast,90,2013-04-09 18:16:00
10:36 AM,42.8,37.4,81,29.37,4.0,NW,3.5,-,0.10,,Overcast,320,2013-04-09 18:36:00
10:56 AM,44.6,37.4,76,29.38,4.0,Calm,Calm,-,0.18,,Overcast,0,2013-04-09 18:56:00
11:16 AM,44.6,39.2,81,29.40,4.0,SE,5.8,-,0.07,,Overcast,130,2013-04-09 19:16:00
11:36 AM,44.6,37.4,76,29.43,4.0,SSE,5.8,-,0.13,,Overcast,160,2013-04-09 19:36:00
11:56 AM,44.6,37.4,76,29.45,4.0,SW,8.1,24.2,0.16,,Overcast,230,2013-04-09 19:56:00
12:16 PM,44.6,37.4,76,29.48,4.0,Calm,Calm,-,0.01,,Overcast,0,2013-04-09 20:16:00
12:36 PM,42.8,37.4,81,29.51,4.0,South,6.9,-,0.03,,Overcast,170,2013-04-09 20:36:00
12:56 PM,42.8,37.4,81,29.53,5.0,SE,4.6,17.3,0.05,,Overcast,140,2013-04-09 20:56:00
1:16 PM,44.6,37.4,76,29.55,5.0,Calm,Calm,-,N/A,,Overcast,0,2013-04-09 21:16:00
1:36 PM,42.8,35.6,76,29.58,5.0,SE,6.9,-,N/A,,Overcast,140,2013-04-09 21:36:00
1:56 PM,42.8,35.6,76,29.60,5.0,SSE,9.2,16.1,N/A,,Overcast,150,2013-04-09 21:56:00
2:16 PM,44.6,37.4,76,29.62,5.0,SE,8.1,-,0.01,,Overcast,130,2013-04-09 22:16:00
2:36 PM,44.6,37.4,76,29.63,5.0,SE,5.8,-,0.01,,Overcast,140,2013-04-09 22:36:00
2:56 PM,44.6,37.4,76,29.64,10.0,SE,8.1,-,0.01,,Overcast,130,2013-04-09 22:56:00
3:16 PM,44.6,35.6,71,29.65,10.0,South,11.5,16.1,N/A,,Overcast,180,2013-04-09 23:16:00
3:50 PM,44.6,35.6,71,29.57,10.0,South,5.8,-,N/A,Rain,Light Rain,180,2013-04-09 23:50:00
3:56 PM,-9999,-9999,N/A,29.67,-9999.0,South,8.1,-,N/A,,Unknown,180,2013-04-09 23:56:00
4:16 PM,44.6,37.4,76,29.68,10.0,SSE,9.2,-,N/A,,Overcast,160,2013-04-10 00:16:00
4:36 PM,44.6,35.6,71,29.68,10.0,SSW,9.2,19.6,N/A,,Overcast,200,2013-04-10 00:36:00
4:56 PM,44.6,35.6,71,29.70,10.0,SSE,9.2,-,N/A,,Mostly Cloudy,160,2013-04-10 00:56:00
5:16 PM,42.8,37.4,81,29.71,10.0,South,10.4,16.1,N/A,,Mostly Cloudy,190,2013-04-10 01:16:00
5:36 PM,42.8,35.6,76,29.71,10.0,South,8.1,-,N/A,,Mostly Cloudy,190,2013-04-10 01:36:00
5:56 PM,44.6,35.6,71,29.72,10.0,SW,9.2,18.4,N/A,,Mostly Cloudy,220,2013-04-10 01:56:00
6:16 PM,41.0,33.8,76,29.73,10.0,West,4.6,-,N/A,,Mostly Cloudy,280,2013-04-10 02:16:00
6:36 PM,41.0,35.6,81,29.73,10.0,West,5.8,-,N/A,,Mostly Cloudy,270,2013-04-10 02:36:00
6:56 PM,42.8,33.8,70,29.74,10.0,WSW,6.9,-,N/A,,Scattered Clouds,240,2013-04-10 02:56:00
7:16 PM,41.0,33.8,76,29.74,10.0,SW,5.8,-,N/A,,Mostly Cloudy,230,2013-04-10 03:16:00
7:36 PM,42.8,32.0,66,29.75,10.0,SSW,6.9,-,N/A,,Mostly Cloudy,200,2013-04-10 03:36:00
7:56 PM,39.2,33.8,81,29.76,10.0,WSW,8.1,-,N/A,,Mostly Cloudy,250,2013-04-10 03:56:00
8:16 PM,39.2,33.8,81,29.77,10.0,WSW,4.6,-,N/A,,Mostly Cloudy,240,2013-04-10 04:16:00
8:36 PM,39.2,33.8,81,29.78,10.0,WSW,4.6,-,N/A,,Mostly Cloudy,240,2013-04-10 04:36:00
8:56 PM,37.4,33.8,87,29.79,10.0,SW,4.6,-,0.01,,Overcast,220,2013-04-10 04:56:00
9:16 PM,37.4,33.8,87,29.79,10.0,SW,4.6,-,N/A,,Overcast,230,2013-04-10 05:16:00
9:36 PM,37.4,33.8,87,29.81,10.0,SSW,4.6,-,N/A,,Overcast,200,2013-04-10 05:36:00
9:56 PM,39.2,30.2,70,29.81,10.0,SSW,5.8,-,N/A,,Overcast,200,2013-04-10 05:56:00
10:16 PM,39.2,28.4,65,29.82,10.0,SSW,6.9,-,N/A,,Overcast,200,2013-04-10 06:16:00
10:36 PM,37.4,26.6,65,29.83,10.0,SW,10.4,-,N/A,,Overcast,220,2013-04-10 06:36:00
10:56 PM,39.2,24.8,56,29.83,10.0,South,5.8,-,N/A,,Overcast,190,2013-04-10 06:56:00
11:16 PM,37.4,26.6,65,29.84,10.0,SSE,3.5,-,N/A,,Overcast,160,2013-04-10 07:16:00
11:36 PM,37.4,28.4,70,29.84,10.0,WSW,4.6,-,N/A,,Overcast,250,2013-04-10 07:36:00
11:56 PM,35.6,30.2,81,29.85,10.0,Calm,Calm,-,N/A,,Overcast,0,2013-04-10 07:56:00